This demonstration page uses our WeatherBlox Daily Observations layout. Learn more.

Left ArrowRight Arrow

Hourly Observations for April 11, 2021

Temp ( °F °C ) Dew Point ( °F °C ) Humidity (%) Winds ( mph kmh ) Pressure ( in mb ) Visibility ( mi km ) Precip ( " mm )
12:54 am 00:54 Clear 34 1.1 29 -1.7 82 82 Calm 29.67 1005 10 16.0934 0 0
1:54 am 01:54 Clear 36 2.2 30 -1.1 79 79 Calm 29.67 1005 10 16.0934 0 0
2:54 am 02:54 Clear 32 0 28 -2.2 85 85 NNW 5 7 29.67 1005 10 16.0934 0 0
3:54 am 03:54 Clear 34 1.1 29 -1.7 82 82 Calm 29.66 1004 10 16.0934 0 0
4:54 am 04:54 Clear 30 -1.1 26 -3.3 85 85 NNW 5 7 29.67 1005 10 16.0934 0 0
5:54 am 05:54 Clear 34 1.1 28 -2.2 79 79 Calm 29.66 1004 10 16.0934 0 0
6:54 am 06:54 Sunny 30 -1.1 26 -3.3 85 85 N 3 6 29.66 1004 10 16.0934 0 0
7:54 am 07:54 Sunny 35 1.7 29 -1.7 78 78 Calm 29.65 1004 10 16.0934 0 0
8:54 am 08:54 Sunny 42 5.6 35 1.7 76 76 Calm 29.64 1004 10 16.0934 0 0
9:54 am 09:54 Sunny 53 11.7 37 2.8 55 55 SSE 3 6 29.64 1004 10 16.0934 0 0
10:54 am 10:54 Sunny 58 14.4 30 -1.1 35 35 SE 8 13 29.63 1003 10 16.0934 0 0
11:54 am 11:54 Sunny 62 16.7 31 -0.6 31 31 E 6 9 29.62 1003 10 16.0934 0 0
12:54 pm 12:54 Sunny 64 17.8 31 -0.6 29 29 Calm 29.61 1003 10 16.0934 0 0
1:54 pm 13:54 Sunny 68 20 35 1.7 30 30 SSW 3 6 29.61 1003 10 16.0934 0 0
2:54 pm 14:54 Sunny 69 20.6 35 1.7 29 29 NNW 5 7 29.61 1003 10 16.0934 0 0
3:54 pm 15:54 Sunny 69 20.6 35 1.7 29 29 W 12 19 29.62 1003 10 16.0934 0 0
4:54 pm 16:54 Sunny 70 21.1 34 1.1 27 27 WNW 24 39 29.64 1004 10 16.0934 0 0
5:54 pm 17:54 Sunny 67 19.4 33 0.6 28 28 NW 17 28 29.65 1004 10 16.0934 0 0
6:54 pm 18:54 Sunny 65 18.3 32 0 29 29 NW 18 30 29.68 1005 10 16.0934 0 0
7:54 pm 19:54 Sunny 60 15.6 36 2.2 41 41 NNW 25 41 29.73 1007 10 16.0934 0 0
8:54 pm 20:54 Clear 56 13.3 34 1.1 44 44 NNW 21 33 29.8 1009 10 16.0934 0 0
9:54 pm 21:54 Clear 53 11.7 30 -1.1 41 41 NNW 16 26 29.83 1010 10 16.0934 0 0
10:54 pm 22:54 Clear 50 10 30 -1.1 46 46 NNW 13 20 29.85 1011 10 16.0934 0 0
11:54 pm 23:54 Clear 49 9.4 31 -0.6 50 50 NNW 13 20 29.88 1012 10 16.0934 0 0

Powered by AerisWeather